• In Lithuania
  • List of Countries
  • For 7 days
  • Water Temperature
  • Satellite Maps
  • Weather Map
  • Weather Widgets
  • user-avatar
    Login

    Hourly Weather Parakou

    Today, 19 September, Wednesday

    Time Temperature Precipitation Wind Pressure Humidity
    00:00 +25°C° 0 mm 1 mps 728 mmHg 96%
    01:00 +24°C° 0 mm 1 mps 728 mmHg 97%
    02:00 +24°C° 0 mm 1 mps 727 mmHg 98%
    03:00 +24°C° 0 mm 1 mps 727 mmHg 98%
    04:00 +24°C° 0 mm 1 mps 727 mmHg 98%
    05:00 +24°C° 0 mm 1 mps 727 mmHg 98%
    06:00 +23°C° 0 mm 1 mps 728 mmHg 97%
    07:00 +25°C° 0 mm 1 mps 728 mmHg 90%
    08:00 +26°C° 0 mm 2 mps 728 mmHg 84%
    09:00 +28°C° 0 mm 2 mps 728 mmHg 77%
    10:00 +29°C° 0 mm 2 mps 728 mmHg 71%
    11:00 +31°C° 0 mm 2 mps 728 mmHg 65%
    12:00 +32°C° 0 mm 2 mps 728 mmHg 60%
    13:00 +32°C° 0 mm 2 mps 727 mmHg 59%
    14:00 +32°C° 0 mm 2 mps 727 mmHg 59%
    15:00 +33°C° 0 mm 1 mps 726 mmHg 58%
    16:00 +31°C° 0 mm 1 mps 726 mmHg 64%
    17:00 +30°C° 0 mm 1 mps 726 mmHg 69%
    18:00 +28°C° 0 mm 1 mps 726 mmHg 75%
    19:00 +28°C° 0 mm 1 mps 726 mmHg 77%
    20:00 +27°C° 0 mm 1 mps 727 mmHg 79%
    21:00 +27°C° 0 mm 1 mps 727 mmHg 82%
    22:00 +26°C° 0 mm 1 mps 727 mmHg 84%
    23:00 +26°C° 0 mm 1 mps 727 mmHg 86%

    Tomorrow, 20 September, Thursday

    Time Temperature Precipitation Wind Pressure Humidity
    00:00 +26°C° 0 mm 1 mps 727 mmHg 88%
    01:00 +25°C° 0 mm 1 mps 727 mmHg 90%
    02:00 +25°C° 0 mm 1 mps 726 mmHg 92%
    03:00 +25°C° 0 mm 1 mps 726 mmHg 94%
    04:00 +24°C° 0 mm 1 mps 726 mmHg 95%
    05:00 +24°C° 0 mm 1 mps 726 mmHg 96%
    06:00 +24°C° 0 mm 1 mps 727 mmHg 97%
    07:00 +26°C° 0 mm 1 mps 727 mmHg 90%
    08:00 +28°C° 0 mm 2 mps 727 mmHg 83%
    09:00 +29°C° 0 mm 2 mps 728 mmHg 77%
    10:00 +31°C° 0.3 mm 2 mps 728 mmHg 71%
    11:00 +32°C° 0.3 mm 2 mps 727 mmHg 66%
    12:00 +35°C° 0.3 mm 2 mps 727 mmHg 60%
    13:00 +33°C° 2.9 mm 1 mps 726 mmHg 65%
    14:00 +32°C° 2.9 mm 1 mps 726 mmHg 70%
    15:00 +31°C° 2.9 mm 1 mps 725 mmHg 74%
    16:00 +30°C° 0.5 mm 1 mps 725 mmHg 78%
    17:00 +29°C° 0.5 mm 1 mps 725 mmHg 82%
    18:00 +25°C° 0.5 mm 0 mps 725 mmHg 86%
    19:00 +27°C° 0.1 mm 1 mps 726 mmHg 87%
    20:00 +27°C° 0.1 mm 1 mps 726 mmHg 88%
    21:00 +26°C° 0.1 mm 1 mps 727 mmHg 89%
    22:00 +26°C° 0.1 mm 1 mps 727 mmHg 90%
    23:00 +26°C° 0.1 mm 1 mps 726 mmHg 92%

    Day after tomorrow, 21 September, Friday

    Time Temperature Precipitation Wind Pressure Humidity
    00:00 +25°C° 0.1 mm 1 mps 726 mmHg 93%
    01:00 +25°C° 1.3 mm 1 mps 726 mmHg 94%
    02:00 +25°C° 1.3 mm 1 mps 726 mmHg 95%
    03:00 +25°C° 1.3 mm 1 mps 726 mmHg 97%
    04:00 +25°C° 0.1 mm 2 mps 726 mmHg 97%
    05:00 +25°C° 0.1 mm 2 mps 726 mmHg 97%
    06:00 +24°C° 0.1 mm 2 mps 726 mmHg 98%
    07:00 +25°C° 0 mm 2 mps 727 mmHg 95%
    08:00 +26°C° 0 mm 2 mps 727 mmHg 92%
    09:00 +27°C° 0 mm 3 mps 728 mmHg 89%
    10:00 +28°C° 1.1 mm 3 mps 728 mmHg 84%
    11:00 +29°C° 1.1 mm 2 mps 727 mmHg 80%
    12:00 +30°C° 1.1 mm 2 mps 727 mmHg 76%
    13:00 +30°C° 2.1 mm 2 mps 726 mmHg 79%
    14:00 +30°C° 2.1 mm 2 mps 726 mmHg 82%
    15:00 +29°C° 2.1 mm 1 mps 725 mmHg 84%
    16:00 +28°C° 0.6 mm 1 mps 725 mmHg 86%
    17:00 +28°C° 0.6 mm 1 mps 726 mmHg 88%
    18:00 +27°C° 0.6 mm 1 mps 726 mmHg 90%
    19:00 +26°C° 0 mm 1 mps 726 mmHg 92%
    20:00 +26°C° 0 mm 1 mps 726 mmHg 93%
    21:00 +25°C° 0 mm 2 mps 726 mmHg 95%
    22:00 +25°C° 0 mm 1 mps 727 mmHg 95%
    23:00 +25°C° 0 mm 1 mps 727 mmHg 95%

    22 September, Saturday

    Time Temperature Precipitation Wind Pressure Humidity
    00:00 +24°C° 0 mm 1 mps 727 mmHg 95%
    01:00 +24°C° 0 mm 1 mps 727 mmHg 96%
    02:00 +24°C° 0 mm 1 mps 726 mmHg 96%
    03:00 +24°C° 0 mm 1 mps 726 mmHg 96%
    04:00 +24°C° 0 mm 1 mps 726 mmHg 96%
    05:00 +24°C° 0 mm 1 mps 727 mmHg 96%
    06:00 +24°C° 0 mm 1 mps 727 mmHg 97%
    07:00 +25°C° 0 mm 1 mps 728 mmHg 91%
    08:00 +27°C° 0 mm 2 mps 728 mmHg 86%
    09:00 +28°C° 0 mm 2 mps 729 mmHg 81%
    10:00 +29°C° 0 mm 2 mps 728 mmHg 76%
    11:00 +30°C° 0 mm 2 mps 728 mmHg 70%
    12:00 +31°C° 0 mm 2 mps 727 mmHg 65%
    13:00 +31°C° 0.5 mm 2 mps 727 mmHg 66%
    14:00 +31°C° 0.5 mm 1 mps 726 mmHg 67%
    15:00 +31°C° 0.5 mm 1 mps 725 mmHg 68%
    16:00 +30°C° 0.4 mm 1 mps 726 mmHg 72%
    17:00 +29°C° 0.4 mm 1 mps 726 mmHg 77%
    18:00 +26°C° 0.4 mm 0 mps 726 mmHg 81%
    19:00 +27°C° 0.4 mm 1 mps 727 mmHg 84%
    20:00 +27°C° 0.4 mm 1 mps 727 mmHg 86%
    21:00 +26°C° 0.4 mm 1 mps 728 mmHg 89%
    22:00 +26°C° 0.3 mm 1 mps 727 mmHg 90%
    23:00 +25°C° 0.3 mm 1 mps 727 mmHg 92%

    23 September, Sunday

    Time Temperature Precipitation Wind Pressure Humidity
    00:00 +25°C° 0.3 mm 1 mps 727 mmHg 93%
    01:00 +25°C° 0 mm 1 mps 726 mmHg 94%
    02:00 +25°C° 0 mm 1 mps 726 mmHg 95%
    03:00 +24°C° 0 mm 1 mps 726 mmHg 96%
    04:00 +24°C° 1.4 mm 1 mps 726 mmHg 97%
    05:00 +24°C° 1.4 mm 2 mps 727 mmHg 97%
    06:00 +24°C° 1.4 mm 2 mps 727 mmHg 98%
    07:00 +25°C° 0.3 mm 2 mps 728 mmHg 96%
    08:00 +25°C° 0.3 mm 2 mps 728 mmHg 95%
    09:00 +25°C° 0.3 mm 2 mps 729 mmHg 94%
    10:00 +26°C° 0.1 mm 2 mps 728 mmHg 89%
    11:00 +28°C° 0.1 mm 2 mps 728 mmHg 83%
    12:00 +29°C° 0.1 mm 2 mps 727 mmHg 77%
    13:00 +29°C° 0.3 mm 1 mps 727 mmHg 74%
    14:00 +30°C° 0.3 mm 1 mps 727 mmHg 71%
    15:00 +30°C° 0.3 mm 1 mps 726 mmHg 68%
    16:00 +29°C° 0 mm 1 mps 726 mmHg 74%
    17:00 +28°C° 0 mm 1 mps 726 mmHg 80%
    18:00 +26°C° 0 mm 1 mps 727 mmHg 86%
    19:00 +26°C° 0 mm 1 mps 727 mmHg 86%
    20:00 +26°C° 0 mm 1 mps 727 mmHg 86%
    21:00 +25°C° 0 mm 1 mps 728 mmHg 86%
    22:00 +25°C° 0 mm 1 mps 727 mmHg 87%
    23:00 +25°C° 0 mm 1 mps 727 mmHg 88%

    24 September, Monday

    Time Temperature Precipitation Wind Pressure Humidity
    00:00 +24°C° 0 mm 1 mps 727 mmHg 89%
    01:00 +24°C° 0.1 mm 1 mps 726 mmHg 91%
    02:00 +24°C° 0.1 mm 1 mps 726 mmHg 92%
    03:00 +23°C° 0.1 mm 1 mps 726 mmHg 94%
    04:00 +23°C° 0 mm 1 mps 726 mmHg 95%
    05:00 +23°C° 0 mm 1 mps 726 mmHg 96%
    06:00 +23°C° 0 mm 2 mps 727 mmHg 97%
    07:00 +25°C° 0 mm 2 mps 727 mmHg 92%
    08:00 +27°C° 0 mm 2 mps 728 mmHg 87%
    09:00 +28°C° 0 mm 2 mps 728 mmHg 82%
    10:00 +29°C° 0 mm 2 mps 728 mmHg 76%
    11:00 +31°C° 0 mm 2 mps 728 mmHg 71%
    12:00 +32°C° 0 mm 2 mps 727 mmHg 65%
    13:00 +32°C° 0.9 mm 2 mps 727 mmHg 68%
    14:00 +31°C° 0.9 mm 2 mps 726 mmHg 71%
    15:00 +31°C° 0.9 mm 2 mps 725 mmHg 74%
    16:00 +29°C° 0.8 mm 2 mps 726 mmHg 79%
    17:00 +28°C° 0.8 mm 1 mps 726 mmHg 84%
    18:00 +27°C° 0.8 mm 1 mps 727 mmHg 89%
    19:00 +27°C° 0.3 mm 1 mps 727 mmHg 89%
    20:00 +26°C° 0.3 mm 1 mps 728 mmHg 90%
    21:00 +26°C° 0.3 mm 1 mps 728 mmHg 90%
    22:00 +26°C° 0 mm 1 mps 728 mmHg 91%
    23:00 +25°C° 0 mm 1 mps 728 mmHg 93%
    Show more